When you browse on this site, cookies collect data to enhance your experience and personalize the content and advertising you see.
Visit our Privacy Policy to learn more. By continuing to use the site, you agree to this use of cookies and data.
  • In Hungary
  • List of Countries
  • For 7 days
  • Water Temperature
  • Satellite Maps
  • Weather Map
  • News
  • Weather Widgets
  • user-avatar
    Login

    Hourly Weather Asadabad

    Today, 18 December, Tuesday

    Time Temperature Precipitation Wind Pressure Humidity
    00:00 +7°C° 0 mm 3 mps 660 mmHg 25%
    01:00 +7°C° 0 mm 3 mps 660 mmHg 25%
    02:00 +7°C° 0 mm 3 mps 660 mmHg 25%
    03:00 +5°C° 0 mm 3 mps 660 mmHg 25%
    04:00 +5°C° 0 mm 3 mps 660 mmHg 25%
    05:00 +5°C° 0 mm 3 mps 659 mmHg 26%
    06:00 +5°C° 0 mm 3 mps 659 mmHg 25%
    07:00 +7°C° 0 mm 3 mps 660 mmHg 25%
    08:00 +7°C° 0 mm 3 mps 660 mmHg 24%
    09:00 +10°C° 0 mm 2 mps 660 mmHg 21%
    10:00 +13°C° 0 mm 2 mps 660 mmHg 18%
    11:00 +16°C° 0 mm 1 mps 661 mmHg 16%
    12:00 +16°C° 0 mm 1 mps 661 mmHg 16%
    13:00 +18°C° 0 mm 1 mps 660 mmHg 15%
    14:00 +18°C° 0 mm 1 mps 660 mmHg 15%
    15:00 +15°C° 0 mm 1 mps 659 mmHg 20%
    16:00 +13°C° 0 mm 1 mps 659 mmHg 24%
    17:00 +10°C° 0 mm 0 mps 658 mmHg 27%
    18:00 +11°C° 0 mm 1 mps 658 mmHg 27%
    19:00 +11°C° 0 mm 1 mps 658 mmHg 27%
    20:00 +10°C° 0 mm 2 mps 658 mmHg 26%
    21:00 +10°C° 0 mm 2 mps 658 mmHg 27%
    22:00 +10°C° 0 mm 2 mps 658 mmHg 27%
    23:00 +10°C° 0 mm 2 mps 658 mmHg 28%

    Tomorrow, 19 December, Wednesday

    Time Temperature Precipitation Wind Pressure Humidity
    00:00 +9°C° 0 mm 2 mps 658 mmHg 28%
    01:00 +9°C° 0 mm 2 mps 658 mmHg 28%
    02:00 +9°C° 0 mm 2 mps 657 mmHg 29%
    03:00 +8°C° 0 mm 2 mps 657 mmHg 29%
    04:00 +8°C° 0 mm 2 mps 657 mmHg 29%
    05:00 +7°C° 0 mm 2 mps 657 mmHg 29%
    06:00 +7°C° 0 mm 2 mps 657 mmHg 28%
    07:00 +7°C° 0 mm 2 mps 657 mmHg 28%
    08:00 +7°C° 0 mm 2 mps 658 mmHg 27%
    09:00 +10°C° 0 mm 2 mps 658 mmHg 24%
    10:00 +13°C° 0 mm 1 mps 659 mmHg 21%
    11:00 +15°C° 0 mm 1 mps 659 mmHg 18%
    12:00 +16°C° 0 mm 1 mps 659 mmHg 18%
    13:00 +16°C° 0 mm 2 mps 659 mmHg 18%
    14:00 +16°C° 0 mm 2 mps 659 mmHg 18%
    15:00 +14°C° 0 mm 1 mps 658 mmHg 22%
    16:00 +12°C° 0 mm 1 mps 658 mmHg 26%
    17:00 +11°C° 0 mm 1 mps 658 mmHg 30%
    18:00 +10°C° 0 mm 1 mps 659 mmHg 30%
    19:00 +9°C° 0 mm 1 mps 659 mmHg 30%
    20:00 +8°C° 0 mm 2 mps 660 mmHg 29%
    21:00 +7°C° 0 mm 2 mps 660 mmHg 29%
    22:00 +7°C° 0 mm 2 mps 660 mmHg 29%
    23:00 +7°C° 0 mm 3 mps 660 mmHg 29%

    Day after tomorrow, 20 December, Thursday

    Time Temperature Precipitation Wind Pressure Humidity
    00:00 +5°C° 0 mm 3 mps 660 mmHg 29%
    01:00 +5°C° 0 mm 3 mps 660 mmHg 28%
    02:00 +5°C° 0 mm 3 mps 660 mmHg 28%
    03:00 +5°C° 0 mm 3 mps 660 mmHg 27%
    04:00 +4°C° 0 mm 3 mps 660 mmHg 27%
    05:00 +4°C° 0 mm 3 mps 660 mmHg 26%
    06:00 +4°C° 0 mm 3 mps 660 mmHg 26%
    07:00 +4°C° 0 mm 3 mps 661 mmHg 25%
    08:00 +4°C° 0 mm 3 mps 661 mmHg 25%
    09:00 +8°C° 0 mm 3 mps 661 mmHg 22%
    10:00 +10°C° 0 mm 2 mps 662 mmHg 20%
    11:00 +13°C° 0 mm 1 mps 662 mmHg 17%
    12:00 +14°C° 0 mm 1 mps 661 mmHg 17%
    13:00 +14°C° 0 mm 1 mps 661 mmHg 17%
    14:00 +15°C° 0 mm 2 mps 660 mmHg 16%
    15:00 +13°C° 0 mm 1 mps 660 mmHg 20%
    16:00 +11°C° 0 mm 1 mps 660 mmHg 23%
    17:00 +10°C° 0 mm 1 mps 660 mmHg 27%
    18:00 +9°C° 0 mm 1 mps 660 mmHg 26%
    19:00 +7°C° 0 mm 2 mps 660 mmHg 25%
    20:00 +7°C° 0 mm 3 mps 661 mmHg 24%
    21:00 +7°C° 0 mm 3 mps 661 mmHg 23%
    22:00 +5°C° 0 mm 3 mps 660 mmHg 22%
    23:00 +5°C° 0 mm 3 mps 660 mmHg 21%

    21 December, Friday

    Time Temperature Precipitation Wind Pressure Humidity
    00:00 +5°C° 0 mm 3 mps 660 mmHg 21%
    01:00 +5°C° 0 mm 3 mps 659 mmHg 20%
    02:00 +4°C° 0 mm 3 mps 659 mmHg 19%
    03:00 +4°C° 0 mm 3 mps 659 mmHg 19%
    04:00 +4°C° 0 mm 3 mps 658 mmHg 18%
    05:00 +4°C° 0 mm 3 mps 658 mmHg 18%
    06:00 +4°C° 0 mm 3 mps 658 mmHg 17%
    07:00 +4°C° 0 mm 3 mps 658 mmHg 17%
    08:00 +4°C° 0 mm 3 mps 658 mmHg 17%
    09:00 +8°C° 0 mm 2 mps 658 mmHg 15%
    10:00 +12°C° 0 mm 2 mps 659 mmHg 14%
    11:00 +14°C° 0 mm 1 mps 659 mmHg 12%
    12:00 +15°C° 0 mm 1 mps 659 mmHg 12%
    13:00 +15°C° 0 mm 1 mps 658 mmHg 13%
    14:00 +16°C° 0 mm 1 mps 658 mmHg 13%
    15:00 +14°C° 0 mm 1 mps 657 mmHg 16%
    16:00 +12°C° 0 mm 1 mps 657 mmHg 20%
    17:00 +10°C° 0 mm 1 mps 656 mmHg 23%
    18:00 +9°C° 0 mm 1 mps 657 mmHg 22%
    19:00 +8°C° 0 mm 2 mps 657 mmHg 21%
    20:00 +7°C° 0 mm 2 mps 658 mmHg 20%
    21:00 +7°C° 0 mm 2 mps 658 mmHg 20%
    22:00 +7°C° 0 mm 3 mps 658 mmHg 20%
    23:00 +7°C° 0 mm 3 mps 658 mmHg 20%

    22 December, Saturday

    Time Temperature Precipitation Wind Pressure Humidity
    00:00 +5°C° 0 mm 3 mps 658 mmHg 20%
    01:00 +5°C° 0 mm 3 mps 657 mmHg 19%
    02:00 +5°C° 0 mm 3 mps 657 mmHg 19%
    03:00 +5°C° 0 mm 3 mps 657 mmHg 18%
    04:00 +4°C° 0 mm 3 mps 657 mmHg 18%
    05:00 +4°C° 0 mm 3 mps 657 mmHg 17%
    06:00 +4°C° 0 mm 3 mps 657 mmHg 17%
    07:00 +4°C° 0 mm 3 mps 657 mmHg 17%
    08:00 +5°C° 0 mm 3 mps 658 mmHg 17%
    09:00 +8°C° 0 mm 2 mps 658 mmHg 15%
    10:00 +12°C° 0 mm 2 mps 659 mmHg 13%
    11:00 +14°C° 0 mm 2 mps 659 mmHg 12%
    12:00 +15°C° 0 mm 2 mps 659 mmHg 12%
    13:00 +15°C° 0 mm 2 mps 659 mmHg 12%
    14:00 +16°C° 0 mm 2 mps 658 mmHg 12%
    15:00 +14°C° 0 mm 1 mps 658 mmHg 15%
    16:00 +12°C° 0 mm 1 mps 657 mmHg 18%
    17:00 +10°C° 0 mm 1 mps 657 mmHg 22%
    18:00 +9°C° 0 mm 1 mps 658 mmHg 21%
    19:00 +8°C° 0 mm 2 mps 658 mmHg 20%
    20:00 +7°C° 0 mm 2 mps 659 mmHg 20%
    21:00 +7°C° 0 mm 3 mps 659 mmHg 20%
    22:00 +5°C° 0 mm 3 mps 659 mmHg 20%
    23:00 +5°C° 0 mm 3 mps 659 mmHg 20%

    23 December, Sunday

    Time Temperature Precipitation Wind Pressure Humidity
    00:00 +5°C° 0 mm 3 mps 658 mmHg 20%
    01:00 +4°C° 0 mm 3 mps 658 mmHg 20%
    02:00 +4°C° 0 mm 3 mps 658 mmHg 20%
    03:00 +4°C° 0 mm 3 mps 658 mmHg 20%
    04:00 +4°C° 0 mm 3 mps 658 mmHg 19%
    05:00 +3°C° 0 mm 3 mps 657 mmHg 19%
    06:00 +4°C° 0 mm 3 mps 658 mmHg 20%
    07:00 +4°C° 0 mm 3 mps 658 mmHg 20%
    08:00 +4°C° 0 mm 3 mps 658 mmHg 20%
    09:00 +7°C° 0 mm 2 mps 659 mmHg 18%
    10:00 +9°C° 0 mm 2 mps 659 mmHg 17%
    11:00 +12°C° 0 mm 2 mps 659 mmHg 15%
    12:00 +12°C° 0 mm 2 mps 659 mmHg 16%
    13:00 +12°C° 0 mm 2 mps 659 mmHg 16%
    14:00 +12°C° 0 mm 2 mps 658 mmHg 16%
    15:00 +10°C° 0 mm 2 mps 658 mmHg 19%
    16:00 +9°C° 0 mm 2 mps 658 mmHg 21%
    17:00 +8°C° 0 mm 2 mps 658 mmHg 24%
    18:00 +8°C° 0 mm 2 mps 658 mmHg 25%
    19:00 +7°C° 0 mm 2 mps 659 mmHg 26%
    20:00 +5°C° 0 mm 3 mps 659 mmHg 28%
    21:00 +5°C° 0 mm 3 mps 659 mmHg 28%
    22:00 +6°C° 0 mm 2 mps 659 mmHg 29%
    23:00 +6°C° 0 mm 2 mps 659 mmHg 29%
    Show more